N508FX SBIL-SBCJ

Flight info

Callsign N508FX
Flight time N/A
Altitude 43000
Route DCT EDNOB/N0250F200 IFR DCT URUVA DCT XODOV DCT ELADI/N0459F400 UZ9 SUDRO UL576 ATOGU DCT CJ011
Aircraft CL30/M-SDFGIRW/S

Departure

Time 2026-05-06 19:46
Airport Bahia - Jorge Amado Airport (SBIL)

Arrival

Time N/A
Airport Carajás Airport (SBCJ)
Time Latitude Longitude Altitude Speed Heading
2026-05-06 19:27 -14.81479 -39.03375 23 ft 0 kts 46°
2026-05-06 19:41 -14.81478 -39.03375 23 ft 0 kts 46°
2026-05-06 19:41 -14.81475 -39.03369 23 ft 1 kts 86°
2026-05-06 19:41 -14.81482 -39.03362 23 ft 1 kts 158°
2026-05-06 19:42 -14.81485 -39.03361 23 ft 0 kts 155°
2026-05-06 19:43 -14.81489 -39.03360 23 ft 4 kts 173°
2026-05-06 19:43 -14.81534 -39.03357 23 ft 3 kts 173°
2026-05-06 19:43 -14.81543 -39.03356 23 ft 0 kts 173°
2026-05-06 19:44 -14.81574 -39.03352 23 ft 2 kts 173°
2026-05-06 19:44 -14.81597 -39.03360 23 ft 12 kts 230°
2026-05-06 19:44 -14.81605 -39.03544 21 ft 38 kts 269°
2026-05-06 19:44 -14.81611 -39.03835 18 ft 37 kts 267°
2026-05-06 19:45 -14.81629 -39.04003 15 ft 11 kts 252°
2026-05-06 19:45 -14.81606 -39.04012 15 ft 4 kts 95°
2026-05-06 19:45 -14.81606 -39.03971 16 ft 34 kts 91°
2026-05-06 19:45 -14.81597 -39.03321 30 ft 143 kts 90°
2026-05-06 19:46 -14.81579 -39.02225 941 ft 156 kts 90°
2026-05-06 19:46 -14.81546 -39.01102 2089 ft 160 kts 88°
2026-05-06 19:46 -14.81500 -38.99983 3221 ft 162 kts 89°
2026-05-06 19:46 -14.81453 -38.98797 4353 ft 170 kts 89°
2026-05-06 19:47 -14.81334 -38.97631 5571 ft 170 kts 70°
2026-05-06 19:47 -14.80542 -38.96753 6641 ft 180 kts 24°
2026-05-06 19:47 -14.79324 -38.96705 7792 ft 182 kts 338°
2026-05-06 19:47 -14.78407 -38.97556 8874 ft 183 kts 292°
2026-05-06 19:48 -14.78113 -38.98804 9907 ft 184 kts 278°
2026-05-06 19:48 -14.77873 -39.00103 10942 ft 187 kts 282°
2026-05-06 19:48 -14.77473 -39.01373 11940 ft 190 kts 291°
2026-05-06 19:48 -14.76891 -39.02610 12906 ft 194 kts 297°
2026-05-06 19:49 -14.76199 -39.03798 13817 ft 198 kts 301°
2026-05-06 19:49 -14.75416 -39.04979 14719 ft 201 kts 303°
2026-05-06 19:49 -14.74573 -39.06148 15594 ft 205 kts 305°
2026-05-06 19:49 -14.73687 -39.07316 16444 ft 208 kts 306°
2026-05-06 19:50 -14.72772 -39.08483 17261 ft 212 kts 307°
2026-05-06 19:50 -14.71827 -39.09666 18061 ft 215 kts 307°
2026-05-06 19:50 -14.70852 -39.10869 18848 ft 219 kts 307°
2026-05-06 19:50 -14.69865 -39.12077 19604 ft 222 kts 307°
2026-05-06 19:51 -14.68843 -39.13325 20344 ft 226 kts 307°
2026-05-06 19:51 -14.67814 -39.14576 21060 ft 229 kts 308°
2026-05-06 19:51 -14.66764 -39.15849 21753 ft 233 kts 308°
2026-05-06 19:51 -14.65697 -39.17142 22428 ft 237 kts 308°
2026-05-06 19:52 -14.64615 -39.18453 23087 ft 241 kts 308°
2026-05-06 19:52 -14.63513 -39.19786 23738 ft 244 kts 308°
2026-05-06 19:52 -14.62397 -39.21136 24374 ft 247 kts 308°
2026-05-06 19:52 -14.61261 -39.22510 24989 ft 251 kts 308°
2026-05-06 19:53 -14.60116 -39.23895 25588 ft 254 kts 309°
2026-05-06 19:53 -14.58953 -39.25301 26178 ft 258 kts 309°
2026-05-06 19:53 -14.57777 -39.26722 26757 ft 261 kts 309°
2026-05-06 19:53 -14.56582 -39.28166 27333 ft 264 kts 309°
2026-05-06 19:54 -14.55361 -39.29641 27890 ft 267 kts 309°
2026-05-06 19:54 -14.54154 -39.31100 28425 ft 270 kts 310°
2026-05-06 19:54 -14.52904 -39.32610 28963 ft 273 kts 310°
2026-05-06 19:54 -14.51658 -39.34113 29483 ft 276 kts 310°
2026-05-06 19:55 -14.50388 -39.35647 29995 ft 279 kts 310°
2026-05-06 19:55 -14.49118 -39.37180 30499 ft 281 kts 311°
2026-05-06 19:55 -14.47840 -39.38721 30992 ft 284 kts 311°
2026-05-06 19:55 -14.46540 -39.40290 31480 ft 286 kts 311°
2026-05-06 19:56 -14.45225 -39.41877 31948 ft 289 kts 311°
2026-05-06 19:56 -14.43886 -39.43492 32424 ft 292 kts 311°
2026-05-06 19:56 -14.42560 -39.45092 32882 ft 294 kts 312°
2026-05-06 19:56 -14.41226 -39.46699 33328 ft 296 kts 312°
2026-05-06 19:57 -14.39863 -39.48342 33777 ft 299 kts 312°
2026-05-06 19:57 -14.38506 -39.49979 34219 ft 301 kts 313°
2026-05-06 19:57 -14.37159 -39.51599 34646 ft 302 kts 313°
2026-05-06 19:57 -14.35786 -39.53252 35056 ft 305 kts 312°
2026-05-06 19:58 -14.34401 -39.54919 35475 ft 307 kts 312°
2026-05-06 19:58 -14.33006 -39.56598 35891 ft 308 kts 313°
2026-05-06 19:58 -14.31453 -39.58131 36323 ft 305 kts 328°
2026-05-06 19:58 -14.29673 -39.59307 36764 ft 302 kts 332°
2026-05-06 19:59 -14.27883 -39.60427 37173 ft 303 kts 333°
2026-05-06 19:59 -14.26051 -39.61556 37584 ft 303 kts 333°
2026-05-06 19:59 -14.24229 -39.62668 37984 ft 302 kts 333°
2026-05-06 19:59 -14.22425 -39.63760 38372 ft 302 kts 333°
2026-05-06 20:00 -14.20583 -39.64867 38737 ft 302 kts 334°
2026-05-06 20:00 -14.18766 -39.65957 39090 ft 302 kts 334°
2026-05-06 20:00 -14.16971 -39.67031 39417 ft 302 kts 334°
2026-05-06 20:00 -14.15140 -39.68123 39741 ft 302 kts 334°
2026-05-06 20:01 -14.13326 -39.69203 40053 ft 302 kts 334°
2026-05-06 20:01 -14.11533 -39.70270 40347 ft 302 kts 334°
2026-05-06 20:01 -14.09702 -39.71359 40643 ft 302 kts 334°
2026-05-06 20:01 -14.07898 -39.72430 40922 ft 302 kts 334°
2026-05-06 20:02 -14.06080 -39.73510 41195 ft 302 kts 334°
2026-05-06 20:02 -14.04270 -39.74585 41468 ft 302 kts 334°
2026-05-06 20:02 -14.02444 -39.75668 41731 ft 302 kts 334°
2026-05-06 20:02 -14.00608 -39.76757 41971 ft 303 kts 334°
2026-05-06 20:03 -13.98764 -39.77851 42222 ft 302 kts 334°
2026-05-06 20:03 -13.96945 -39.78929 42454 ft 302 kts 334°
2026-05-06 20:03 -13.95103 -39.80021 42697 ft 302 kts 334°
2026-05-06 20:03 -13.93275 -39.81104 42908 ft 303 kts 334°
2026-05-06 20:04 -13.91470 -39.82173 43023 ft 307 kts 334°
2026-05-06 20:04 -13.89621 -39.83268 43031 ft 316 kts 334°
2026-05-06 20:04 -13.85684 -39.85598 43033 ft 336 kts 334°
2026-05-06 20:05 -13.81497 -39.88076 43032 ft 357 kts 334°
2026-05-06 20:05 -13.79322 -39.89363 43030 ft 368 kts 333°
2026-05-06 20:05 -13.77038 -39.90714 43031 ft 379 kts 333°
2026-05-06 20:06 -13.74744 -39.92072 43030 ft 390 kts 333°
2026-05-06 20:06 -13.72337 -39.93495 43030 ft 401 kts 333°
2026-05-06 20:06 -13.69861 -39.94960 43029 ft 412 kts 333°
2026-05-06 20:06 -13.67354 -39.96442 43029 ft 423 kts 333°
2026-05-06 20:07 -13.64772 -39.97967 43029 ft 434 kts 333°
2026-05-06 20:07 -13.62125 -39.99532 43028 ft 444 kts 333°
2026-05-06 20:07 -13.56656 -40.02762 43028 ft 464 kts 333°
2026-05-06 20:08 -13.50918 -40.06149 43027 ft 482 kts 333°
2026-05-06 20:08 -13.45003 -40.09694 43022 ft 499 kts 328°
2026-05-06 20:09 -13.39816 -40.14543 43021 ft 506 kts 310°
2026-05-06 20:09 -13.36270 -40.20750 43021 ft 503 kts 291°
2026-05-06 20:10 -13.33774 -40.27448 43023 ft 502 kts 295°
2026-05-06 20:10 -13.30539 -40.33856 43023 ft 502 kts 299°
2026-05-06 20:11 -13.27051 -40.40106 43024 ft 503 kts 301°
2026-05-06 20:11 -13.23503 -40.46282 43025 ft 502 kts 301°
2026-05-06 20:12 -13.19909 -40.52478 43025 ft 502 kts 301°
2026-05-06 20:12 -13.16316 -40.58654 43026 ft 502 kts 301°
2026-05-06 20:13 -13.12741 -40.64788 43026 ft 502 kts 301°
2026-05-06 20:13 -13.09127 -40.70985 43020 ft 501 kts 301°
2026-05-06 20:14 -13.05541 -40.77127 43019 ft 499 kts 301°
2026-05-06 20:14 -13.01968 -40.83243 43019 ft 498 kts 301°
2026-05-06 20:15 -12.98375 -40.89389 43021 ft 500 kts 301°
2026-05-06 20:15 -12.94793 -40.95512 43022 ft 505 kts 301°
2026-05-06 20:16 -12.91155 -41.01726 43023 ft 509 kts 301°
2026-05-06 20:16 -12.87491 -41.07982 43019 ft 511 kts 301°
2026-05-06 20:17 -12.83833 -41.14223 43018 ft 511 kts 301°
2026-05-06 20:17 -12.80153 -41.20497 43019 ft 510 kts 301°
2026-05-06 20:18 -12.76475 -41.26763 43020 ft 510 kts 301°
2026-05-06 20:18 -12.72809 -41.33004 43021 ft 510 kts 301°
2026-05-06 20:19 -12.69128 -41.39266 43022 ft 510 kts 301°
2026-05-06 20:19 -12.65461 -41.45501 43023 ft 510 kts 301°
2026-05-06 20:20 -12.61777 -41.51760 43023 ft 510 kts 301°
2026-05-06 20:20 -12.58114 -41.57978 43023 ft 510 kts 301°
2026-05-06 20:21 -12.54436 -41.64218 43019 ft 510 kts 301°
2026-05-06 20:21 -12.50732 -41.70499 43003 ft 510 kts 301°
2026-05-06 20:22 -12.47033 -41.76766 42992 ft 510 kts 301°
2026-05-06 20:22 -12.43366 -41.82974 42992 ft 510 kts 301°
2026-05-06 20:23 -12.39675 -41.89219 42992 ft 510 kts 301°
2026-05-06 20:23 -12.35982 -41.95464 42993 ft 510 kts 301°
2026-05-06 20:24 -12.32303 -42.01680 42994 ft 510 kts 301°
2026-05-06 20:24 -12.28590 -42.07951 42994 ft 510 kts 301°
2026-05-06 20:25 -12.24910 -42.14160 42995 ft 510 kts 301°
2026-05-06 20:25 -12.21212 -42.20397 42996 ft 510 kts 301°
2026-05-06 20:26 -12.17512 -42.26632 42997 ft 510 kts 301°
2026-05-06 20:26 -12.13806 -42.32873 42998 ft 510 kts 301°
2026-05-06 20:27 -12.10146 -42.39035 42998 ft 510 kts 301°
2026-05-06 20:27 -12.06440 -42.45267 42999 ft 510 kts 301°
2026-05-06 20:28 -12.02722 -42.51518 43000 ft 510 kts 301°
2026-05-06 20:28 -11.99022 -42.57733 43001 ft 510 kts 301°
2026-05-06 20:29 -11.95309 -42.63967 43002 ft 510 kts 301°
2026-05-06 20:29 -11.91609 -42.70174 42994 ft 510 kts 301°
2026-05-06 20:30 -11.86048 -42.79494 42989 ft 510 kts 301°
2026-05-06 20:31 -11.82346 -42.85696 42990 ft 510 kts 301°
2026-05-06 20:31 -11.78631 -42.91914 42990 ft 510 kts 301°
2026-05-06 20:32 -11.74944 -42.98080 42991 ft 510 kts 301°
2026-05-06 20:32 -11.71239 -43.04271 42991 ft 510 kts 301°
2026-05-06 20:33 -11.67553 -43.10428 42992 ft 510 kts 300°
2026-05-06 20:33 -11.63866 -43.16583 42993 ft 510 kts 300°
2026-05-06 20:34 -11.60189 -43.22722 42993 ft 509 kts 299°
2026-05-06 20:34 -11.56504 -43.28870 42994 ft 509 kts 299°
2026-05-06 20:35 -11.52837 -43.34983 42995 ft 509 kts 299°
2026-05-06 20:35 -11.49146 -43.41131 42996 ft 509 kts 299°
2026-05-06 20:36 -11.45454 -43.47276 42996 ft 509 kts 299°
2026-05-06 20:36 -11.41777 -43.53394 42997 ft 509 kts 299°
2026-05-06 20:37 -11.38097 -43.59511 42998 ft 509 kts 299°
2026-05-06 20:37 -11.34393 -43.65667 42997 ft 509 kts 300°
2026-05-06 20:38 -11.30697 -43.71804 42993 ft 509 kts 300°
2026-05-06 20:38 -11.26976 -43.77979 42993 ft 509 kts 300°
2026-05-06 20:39 -11.23255 -43.84150 42994 ft 509 kts 300°
2026-05-06 20:39 -11.19547 -43.90297 42995 ft 509 kts 300°
2026-05-06 20:40 -11.15839 -43.96440 42995 ft 509 kts 300°
2026-05-06 20:40 -11.12140 -44.02564 42996 ft 509 kts 300°
2026-05-06 20:41 -11.08446 -44.08676 42997 ft 509 kts 300°
2026-05-06 20:41 -11.04719 -44.14839 42998 ft 509 kts 300°
2026-05-06 20:42 -11.01024 -44.20945 42999 ft 508 kts 300°
2026-05-06 20:42 -10.97319 -44.27065 42999 ft 506 kts 299°
2026-05-06 20:43 -10.93626 -44.33162 42999 ft 503 kts 299°
2026-05-06 20:43 -10.89983 -44.39172 43000 ft 501 kts 299°
2026-05-06 20:44 -10.86332 -44.45193 42991 ft 499 kts 299°
2026-05-06 20:44 -10.82701 -44.51175 42992 ft 500 kts 299°
2026-05-06 20:45 -10.79060 -44.57173 42993 ft 500 kts 299°
2026-05-06 20:45 -10.75423 -44.63160 42993 ft 500 kts 299°
2026-05-06 20:46 -10.71751 -44.69201 42989 ft 500 kts 299°
2026-05-06 20:46 -10.68108 -44.75191 42990 ft 500 kts 299°
2026-05-06 20:47 -10.64446 -44.81210 42991 ft 500 kts 299°
2026-05-06 20:47 -10.60794 -44.87209 42991 ft 500 kts 299°
2026-05-06 20:48 -10.57118 -44.93244 42992 ft 499 kts 300°
2026-05-06 20:48 -10.53492 -44.99192 42992 ft 496 kts 300°
2026-05-06 20:49 -10.49868 -45.05134 42993 ft 493 kts 300°
2026-05-06 20:49 -10.46270 -45.11033 42993 ft 490 kts 300°
2026-05-06 20:50 -10.42692 -45.16892 42993 ft 489 kts 300°
2026-05-06 20:50 -10.39079 -45.22807 42994 ft 490 kts 300°
2026-05-06 20:51 -10.35450 -45.28747 42994 ft 490 kts 300°
2026-05-06 20:51 -10.31855 -45.34626 42995 ft 490 kts 300°
2026-05-06 20:52 -10.28235 -45.40543 42995 ft 490 kts 300°
2026-05-06 20:52 -10.24653 -45.46395 42996 ft 490 kts 300°
2026-05-06 20:53 -10.21062 -45.52258 42996 ft 490 kts 300°
2026-05-06 20:53 -10.17492 -45.58084 42996 ft 490 kts 300°
2026-05-06 20:54 -10.13895 -45.63952 42997 ft 490 kts 300°
2026-05-06 20:54 -10.10283 -45.69840 42995 ft 490 kts 300°
2026-05-06 20:55 -10.06704 -45.75672 42995 ft 490 kts 300°
2026-05-06 20:55 -10.03112 -45.81522 42995 ft 490 kts 300°
2026-05-06 20:56 -9.99509 -45.87388 42996 ft 490 kts 300°
2026-05-06 20:56 -9.95912 -45.93240 42996 ft 490 kts 300°
2026-05-06 20:57 -9.92318 -45.99085 42997 ft 490 kts 300°
2026-05-06 20:57 -9.88733 -46.04912 42991 ft 490 kts 300°
2026-05-06 20:58 -9.85142 -46.10746 42991 ft 490 kts 300°
2026-05-06 20:58 -9.81531 -46.16609 42991 ft 490 kts 300°
2026-05-06 20:59 -9.77922 -46.22468 42991 ft 490 kts 300°
2026-05-06 20:59 -9.74335 -46.28286 42992 ft 490 kts 300°
2026-05-06 21:00 -9.70722 -46.34144 42992 ft 490 kts 300°
2026-05-06 21:00 -9.67126 -46.39972 42992 ft 490 kts 300°
2026-05-06 21:01 -9.63531 -46.45795 42993 ft 490 kts 300°
2026-05-06 21:01 -9.59924 -46.51634 42993 ft 490 kts 300°
2026-05-06 21:02 -9.56332 -46.57447 42994 ft 490 kts 300°
2026-05-06 21:02 -9.52702 -46.63319 42994 ft 490 kts 300°
2026-05-06 21:03 -9.49075 -46.69183 42992 ft 490 kts 300°
2026-05-06 21:03 -9.45457 -46.75028 42992 ft 490 kts 300°
2026-05-06 21:04 -9.41845 -46.80863 42993 ft 490 kts 300°
2026-05-06 21:04 -9.38224 -46.86710 42993 ft 490 kts 300°
2026-05-06 21:05 -9.34606 -46.92548 42994 ft 491 kts 300°
2026-05-06 21:05 -9.30968 -46.98416 42994 ft 491 kts 300°
2026-05-06 21:06 -9.27327 -47.04285 42994 ft 492 kts 300°
2026-05-06 21:06 -9.23692 -47.10141 42995 ft 492 kts 301°
2026-05-06 21:07 -9.20077 -47.15964 42995 ft 492 kts 301°
2026-05-06 21:07 -9.16436 -47.21825 42995 ft 492 kts 300°
2026-05-06 21:08 -9.12809 -47.27661 42996 ft 491 kts 301°
2026-05-06 21:08 -9.09185 -47.33490 42996 ft 491 kts 301°
2026-05-06 21:09 -9.05569 -47.39303 42996 ft 489 kts 301°
2026-05-06 21:09 -9.01957 -47.45108 42996 ft 487 kts 301°
2026-05-06 21:10 -8.98371 -47.50866 42996 ft 486 kts 301°
2026-05-06 21:10 -8.94796 -47.56605 42996 ft 485 kts 301°
2026-05-06 21:11 -8.91197 -47.62381 42997 ft 485 kts 301°
2026-05-06 21:11 -8.87611 -47.68134 42990 ft 485 kts 301°
2026-05-06 21:12 -8.84029 -47.73876 42991 ft 485 kts 301°
2026-05-06 21:12 -8.80439 -47.79629 42991 ft 485 kts 301°
2026-05-06 21:13 -8.76852 -47.85376 42991 ft 485 kts 301°
2026-05-06 21:13 -8.73271 -47.91109 42991 ft 485 kts 301°
2026-05-06 21:14 -8.69661 -47.96887 42992 ft 485 kts 301°
2026-05-06 21:14 -8.66071 -48.02631 42992 ft 485 kts 301°
2026-05-06 21:15 -8.62490 -48.08357 42992 ft 485 kts 301°
2026-05-06 21:15 -8.58890 -48.14111 42993 ft 485 kts 301°
2026-05-06 21:16 -8.55296 -48.19854 42993 ft 485 kts 301°
2026-05-06 21:16 -8.51708 -48.25583 42993 ft 485 kts 301°
2026-05-06 21:17 -8.48097 -48.31348 42993 ft 485 kts 301°
2026-05-06 21:17 -8.44517 -48.37060 42994 ft 485 kts 301°
2026-05-06 21:18 -8.40905 -48.42822 42994 ft 485 kts 301°
2026-05-06 21:18 -8.37328 -48.48526 42994 ft 485 kts 301°
2026-05-06 21:19 -8.33711 -48.54290 42995 ft 485 kts 301°
2026-05-06 21:19 -8.30114 -48.60021 42995 ft 485 kts 301°
2026-05-06 21:20 -8.26727 -48.65416 42995 ft 485 kts 301°
2026-05-06 21:20 -8.24641 -48.68735 42993 ft 485 kts 301°
2026-05-06 21:21 -8.24187 -48.69451 42993 ft 485 kts 302°
2026-05-06 21:21 -8.19834 -48.74668 42991 ft 487 kts 316°
2026-05-06 21:21 -8.17202 -48.76822 42886 ft 491 kts 324°
2026-05-06 21:22 -8.14390 -48.78735 42328 ft 492 kts 325°
2026-05-06 21:22 -8.11556 -48.80712 41779 ft 492 kts 324°
2026-05-06 21:22 -8.08797 -48.82684 41239 ft 492 kts 324°
2026-05-06 21:22 -8.06049 -48.84675 40699 ft 491 kts 323°
2026-05-06 21:23 -8.03260 -48.86710 40148 ft 490 kts 323°
2026-05-06 21:23 -8.00547 -48.88699 39610 ft 489 kts 323°
2026-05-06 21:23 -7.97787 -48.90726 39060 ft 487 kts 323°
2026-05-06 21:23 -7.95077 -48.92719 38518 ft 485 kts 323°
2026-05-06 21:24 -7.92372 -48.94709 37977 ft 485 kts 323°
2026-05-06 21:24 -7.89640 -48.96720 37430 ft 485 kts 323°
2026-05-06 21:24 -7.86927 -48.98716 36879 ft 485 kts 323°
2026-05-06 21:24 -7.84238 -49.00696 36334 ft 484 kts 323°
2026-05-06 21:25 -7.81522 -49.02694 35783 ft 485 kts 323°
2026-05-06 21:25 -7.78813 -49.04688 35234 ft 486 kts 323°
2026-05-06 21:25 -7.76086 -49.06694 34683 ft 487 kts 323°
2026-05-06 21:25 -7.73371 -49.08692 34137 ft 488 kts 323°
2026-05-06 21:26 -7.70625 -49.10711 33585 ft 489 kts 323°
2026-05-06 21:26 -7.67882 -49.12729 33036 ft 490 kts 323°
2026-05-06 21:26 -7.65136 -49.14748 32487 ft 491 kts 323°
2026-05-06 21:26 -7.62401 -49.16759 31941 ft 491 kts 323°
2026-05-06 21:27 -7.59648 -49.18782 31393 ft 492 kts 323°
2026-05-06 21:27 -7.56890 -49.20809 30844 ft 493 kts 323°
2026-05-06 21:27 -7.54123 -49.22843 30294 ft 494 kts 323°
2026-05-06 21:27 -7.51353 -49.24878 29745 ft 493 kts 323°
2026-05-06 21:28 -7.48592 -49.26906 29193 ft 489 kts 323°
2026-05-06 21:28 -7.45894 -49.28888 28648 ft 485 kts 323°
2026-05-06 21:28 -7.43172 -49.30886 28094 ft 481 kts 323°
2026-05-06 21:28 -7.40508 -49.32843 27547 ft 477 kts 323°
2026-05-06 21:29 -7.37826 -49.34812 26992 ft 473 kts 323°
2026-05-06 21:29 -7.35203 -49.36737 26445 ft 469 kts 323°
2026-05-06 21:29 -7.32596 -49.38650 25897 ft 465 kts 323°
2026-05-06 21:29 -7.29997 -49.40558 25346 ft 461 kts 323°
2026-05-06 21:30 -7.27416 -49.42451 24795 ft 458 kts 323°
2026-05-06 21:30 -7.24878 -49.44313 24248 ft 454 kts 323°
2026-05-06 21:30 -7.22316 -49.46193 23693 ft 450 kts 323°
2026-05-06 21:30 -7.19834 -49.48013 23150 ft 447 kts 323°
2026-05-06 21:31 -7.17319 -49.49857 22596 ft 443 kts 323°
2026-05-06 21:31 -7.14863 -49.51658 22050 ft 439 kts 323°
2026-05-06 21:31 -7.12415 -49.53452 21502 ft 435 kts 323°
2026-05-06 21:31 -7.09966 -49.55248 20948 ft 432 kts 323°
2026-05-06 21:32 -7.07557 -49.57013 20400 ft 429 kts 323°
2026-05-06 21:32 -7.02798 -49.60501 19303 ft 422 kts 323°
2026-05-06 21:32 -7.00460 -49.62215 18761 ft 420 kts 323°
2026-05-06 21:33 -6.98093 -49.63950 18210 ft 418 kts 323°
2026-05-06 21:33 -6.95744 -49.65671 17660 ft 416 kts 324°
2026-05-06 21:33 -6.93433 -49.67365 17114 ft 413 kts 324°
2026-05-06 21:33 -6.91133 -49.69049 16565 ft 409 kts 324°
2026-05-06 21:34 -6.88857 -49.70717 16016 ft 405 kts 325°
2026-05-06 21:34 -6.86588 -49.72376 15305 ft 399 kts 325°
2026-05-06 21:34 -6.84378 -49.73992 14581 ft 395 kts 325°
2026-05-06 21:34 -6.82189 -49.75593 13859 ft 391 kts 325°
2026-05-06 21:35 -6.79996 -49.77198 13128 ft 387 kts 325°
2026-05-06 21:35 -6.77855 -49.78764 12407 ft 383 kts 325°
2026-05-06 21:35 -6.75738 -49.80312 11684 ft 367 kts 325°
2026-05-06 21:35 -6.73751 -49.81768 10948 ft 342 kts 325°
2026-05-06 21:36 -6.71886 -49.83132 10218 ft 322 kts 325°
2026-05-06 21:36 -6.70165 -49.84391 9804 ft 303 kts 325°
2026-05-06 21:36 -6.68477 -49.85625 9457 ft 296 kts 325°
2026-05-06 21:36 -6.66827 -49.86831 9257 ft 293 kts 325°
2026-05-06 21:37 -6.65171 -49.88041 9054 ft 292 kts 325°
2026-05-06 21:37 -6.63547 -49.89228 8856 ft 291 kts 325°
2026-05-06 21:37 -6.61905 -49.90428 8654 ft 290 kts 325°
2026-05-06 21:37 -6.60293 -49.91606 8456 ft 289 kts 325°